This demonstration page uses our WeatherBlox Daily Observations layout. Learn more.

Left ArrowRight Arrow

47.50024, -111.30081

Hourly Observations for May 6, 2015

Temp ( °F °C ) Dew Point ( °F °C ) Humidity (%) Winds ( mph kmh ) Pressure ( in mb ) Visibility ( mi km ) Precip ( " mm )
12:53 am 00:53 Cloudy 48 8.9 46 7.8 93 93 W 3 6 29.77 1008 10 16 0.00 0.00
1:53 am 01:53 Clear 44 6.7 38 3.3 79 79 W 9 15 29.80 1009 10 16 0.00 0.00
2:53 am 02:53 Mostly Cloudy 42 5.6 32 0 68 68 WNW 9 15 29.81 1010 10 16 0.00 0.00
3:53 am 03:53 Cloudy 43 6.1 32 0 65 65 NNW 5 7 29.84 1011 10 16 0.00 0.00
4:53 am 04:53 Cloudy 43 6.1 30 -1.1 60 60 NE 5 7 29.87 1011 10 16 0.00 0.00
5:53 am 05:53 Cloudy 42 5.6 27 -2.8 55 55 N 10 17 29.93 1013 10 16 0.00 0.00
6:53 am 06:53 Mostly Cloudy 40 4.4 31 -0.6 70 70 N 12 19 29.94 1014 10 16 0.00 0.00
7:53 am 07:53 Sunny 42 5.6 33 0.6 71 71 N 9 15 29.95 1014 10 16 0.00 0.00
8:53 am 08:53 Cloudy 43 6.1 34 1.1 71 71 NW 5 7 29.95 1014 10 16 0.00 0.00
9:53 am 09:53 Sunny 45 7.2 34 1.1 66 66 NNE 6 9 29.95 1014 10 16 0.00 0.00
10:53 am 10:53 Sunny 49 9.4 33 0.6 55 55 N 10 17 29.95 1014 10 16 0.00 0.00
11:53 am 11:53 Partly Cloudy 53 11.7 32 0 45 45 NNE 9 15 29.93 1014 10 16 0.00 0.00
12:53 pm 12:53 Mostly Cloudy 52 11.1 26 -3.3 37 37 VRB 3 6 29.94 1014 10 16 0.00 0.00
1:53 pm 13:53 Mostly Cloudy 56 13.3 26 -3.3 32 32 N 13 20 29.93 1014 10 16 0.00 0.00
2:53 pm 14:53 Mostly Sunny 55 12.8 25 -3.9 31 31 NNW 9 15 29.94 1014 10 16 0.00 0.00
3:53 pm 15:53 Mostly Sunny 57 13.9 24 -4.4 28 28 N 10 17 29.92 1013 10 16 0.00 0.00
4:53 pm 16:53 Sunny 57 13.9 21 -6.1 25 25 NE 10 17 29.91 1013 10 16 0.00 0.00
5:53 pm 17:53 Mostly Sunny 57 13.9 21 -6.1 25 25 NE 16 26 29.91 1013 10 16 0.00 0.00
6:53 pm 18:53 Mostly Sunny 56 13.3 21 -6.1 26 26 NNE 13 20 29.92 1013 10 16 0.00 0.00
7:53 pm 19:53 Sunny 52 11.1 22 -5.6 31 31 NNE 10 17 29.94 1014 10 16 0.00 0.00
8:53 pm 20:53 Clear 48 8.9 24 -4.4 39 39 NE 13 20 29.97 1015 10 16 0.00 0.00
9:53 pm 21:53 Clear 46 7.8 26 -3.3 46 46 NE 13 20 30.01 1016 10 16 0.00 0.00
10:53 pm 22:53 Clear 43 6.1 27 -2.8 53 53 NE 10 17 30.04 1017 10 16 0.00 0.00
11:53 pm 23:53 Clear 41 5 26 -3.3 55 55 NE 14 22 30.06 1018 10 16 0.00 0.00

Powered by AerisWeather